Temp
22 22 22 22 22 21 20 20 21 21 20 19 19 19 18 18 18 18 18 17 17 16 16 17 17 17 16 16 17 16 16 15 16 16 16 15 15 16 15 16 16 15
23 22 22 22 22 21 21 21 21 21 20 20 19 19 19 19 18 18 17 17 17 17 17 17 17 18 17 16 17 17 16 15 15 16 15 15 15 15 15 16 16 16
23 23 22 22 22 22 22 21 21 21 21 20 19 19 19 18 18 18 17 17 17 17 17 18 18 18 17 16 16 16 16 15 15 15 16 15 15 15 16 16 16 16
23 23 22 22 21 21 22 22 21 21 21 20 19 19 18 18 18 18 17 17 17 17 17 17 17 17 17 16 16 15 15 15 15 15 15 15 15 15 15 15 15 16
23 23 23 22 21 21 21 22 22 22 21 20 20 19 18 19 19 18 18 18 18 17 16 17 17 16 16 16 16 16 15 15 15 15 15 15 15 15 15 15 15 15
23 23 23 22 22 21 21 22 22 22 21 20 20 19 19 19 20 19 19 19 19 18 17 17 17 16 16 17 17 17 16 15 16 15 15 15 15 15 15 15 15 15
23 24 23 22 22 21 22 22 22 22 22 21 20 20 20 20 21 20 19 19 19 19 18 18 18 18 18 18 18 18 17 16 16 16 15 15 15 15 15 15 15 15
23 24 23 23 22 22 22 22 22 22 22 21 21 21 21 21 21 21 20 20 19 19 19 19 19 19 19 19 18 18 17 16 15 15 15 15 15 15 15 15 15 15
24 24 24 23 22 22 22 22 21 22 22 22 22 22 22 21 21 21 21 21 20 20 19 19 18 19 19 19 19 19 18 16 15 15 15 15 15 15 15 15 15 15
24 24 24 23 22 22 23 22 21 22 23 23 23 22 22 22 22 21 21 21 20 19 19 19 18 19 19 19 19 19 19 17 16 16 16 16 16 15 15 15 15 15
24 24 24 23 22 22 23 23 23 23 24 24 23 23 22 22 22 21 21 21 21 20 19 19 19 19 19 19 19 20 20 19 18 17 18 18 17 16 15 15 15 15
25 24 24 23 23 22 23 24 23 23 23 24 24 23 22 21 21 21 21 21 21 21 20 19 19 19 19 19 19 20 20 19 18 17 18 18 17 16 16 16 15 15
26 25 25 24 24 23 24 24 24 23 23 23 23 24 23 22 21 21 21 21 21 21 20 20 19 19 18 19 19 19 19 19 18 17 17 18 17 16 16 15 15 15
26 26 26 25 24 24 24 24 24 24 23 22 22 23 23 22 22 22 21 21 21 21 21 20 19 19 19 19 19 19 19 19 18 18 17 17 17 16 15 15 16 15
26 26 25 24 24 25 25 24 24 24 24 23 22 22 22 22 22 22 21 21 20 20 21 20 19 19 19 19 18 19 19 19 18 17 17 16 16 16 15 15 15 15
25 24 23 24 25 25 25 25 24 24 24 23 22 22 21 21 21 21 20 20 20 20 20 20 19 19 19 19 18 18 19 19 18 17 17 16 16 15 15 15 15 15
24 23 23 23 24 25 25 25 24 24 23 23 23 22 21 20 20 20 19 19 20 20 20 20 19 19 19 19 18 18 18 18 18 17 16 16 15 15 15 15 15 15
24 23 23 24 24 24 24 24 24 23 22 22 22 22 21 20 20 19 19 19 19 19 20 20 19 19 19 19 18 18 18 17 17 16 16 16 15 16 15 15 15 16
24 23 24 24 24 24 23 23 22 22 22 21 21 21 21 20 20 19 19 19 19 19 19 19 19 19 19 19 18 18 17 17 16 16 16 16 16 16 16 16 15 15
24 24 24 24 23 23 23 22 21 21 21 21 21 20 20 20 19 19 19 19 18 18 19 19 18 18 19 19 18 17 17 17 16 16 16 16 16 16 16 15 15 15
24 24 23 23 22 22 22 22 22 21 21 20 20 19 19 19 19 19 19 18 18 18 18 18 18 18 18 18 18 17 17 17 16 16 16 16 16 16 16 15 15 15
24 24 23 22 21 21 22 22 22 21 20 20 19 19 19 19 19 18 18 18 18 18 18 18 17 17 16 16 17 17 17 17 16 16 16 16 16 16 16 15 15 15
24 24 23 22 21 21 21 21 21 21 20 19 19 18 19 19 19 18 18 18 17 17 17 17 17 16 16 16 16 16 16 16 16 16 16 16 16 16 16 16 16 15
24 24 23 23 21 21 20 19 19 19 19 18 17 17 18 18 18 18 17 17 17 16 17 17 16 16 16 15 16 16 16 16 16 16 16 16 16 16 16 16 16 16
24 24 23 23 22 20 19 18 18 18 18 17 17 17 17 17 17 16 16 16 16 16 16 16 16 16 15 15 15 15 15 16 16 16 16 16 16 16 16 16 16 16
24 24 23 23 22 21 19 18 18 17 17 17 17 16 16 16 15 15 15 16 17 16 15 15 15 15 15 15 15 15 15 16 16 16 16 16 16 16 16 16 16 16
Height
1527 1529 1531 1534 1536 1538 1540 1541 1542 1543 1545 1546 1547 1549 1550 1551 1552 1553 1554 1554 1554 1554 1554 1555 1555 1556 1557 1558 1558 1559 1560 1560 1561 1561 1561 1562 1562 1563 1563 1563 1563 1563
1524 1526 1529 1531 1533 1536 1537 1539 1540 1541 1543 1545 1546 1548 1549 1550 1551 1552 1553 1553 1553 1553 1553 1553 1554 1554 1555 1556 1557 1558 1558 1559 1560 1561 1561 1561 1561 1562 1562 1562 1562 1562
1521 1523 1526 1528 1531 1533 1535 1537 1538 1540 1542 1543 1545 1546 1547 1548 1549 1550 1551 1552 1552 1552 1552 1552 1552 1553 1554 1555 1556 1557 1558 1558 1558 1560 1560 1560 1560 1561 1561 1561 1561 1561
1518 1520 1523 1526 1528 1531 1533 1535 1536 1538 1540 1541 1542 1543 1544 1545 1546 1547 1548 1549 1550 1551 1551 1551 1551 1552 1552 1553 1554 1555 1556 1557 1557 1558 1559 1559 1559 1559 1560 1560 1560 1560
1515 1517 1520 1523 1526 1528 1531 1532 1534 1535 1538 1539 1540 1541 1541 1541 1542 1543 1544 1545 1546 1548 1549 1549 1550 1550 1551 1551 1552 1553 1554 1555 1556 1557 1557 1558 1558 1558 1558 1558 1558 1559
1512 1514 1517 1520 1523 1526 1528 1529 1531 1533 1535 1537 1537 1538 1538 1538 1539 1539 1540 1540 1541 1543 1545 1546 1547 1548 1548 1548 1549 1550 1551 1552 1554 1555 1556 1556 1556 1557 1557 1557 1557 1557
1509 1511 1514 1517 1520 1523 1524 1526 1528 1530 1533 1535 1535 1535 1535 1536 1536 1537 1537 1537 1538 1539 1540 1542 1542 1543 1544 1544 1545 1546 1547 1549 1551 1553 1554 1554 1554 1555 1555 1556 1556 1556
1506 1508 1511 1514 1517 1519 1521 1523 1526 1528 1530 1531 1531 1531 1532 1532 1533 1534 1534 1535 1535 1536 1538 1539 1538 1539 1540 1541 1542 1544 1545 1546 1548 1550 1551 1552 1552 1553 1553 1553 1554 1554
1503 1505 1508 1511 1514 1516 1518 1520 1523 1524 1525 1525 1526 1527 1527 1527 1528 1529 1530 1531 1532 1533 1535 1537 1537 1538 1538 1539 1540 1542 1543 1543 1545 1547 1548 1549 1550 1550 1551 1551 1552 1552
1499 1502 1505 1507 1510 1512 1514 1517 1518 1519 1520 1521 1522 1523 1523 1522 1523 1524 1525 1527 1528 1530 1531 1533 1535 1535 1536 1536 1537 1539 1540 1541 1542 1544 1545 1547 1547 1548 1549 1549 1550 1550
1495 1498 1501 1503 1506 1508 1509 1511 1512 1513 1514 1516 1517 1518 1518 1517 1518 1520 1521 1523 1525 1526 1528 1529 1531 1532 1533 1533 1534 1535 1537 1538 1540 1541 1542 1543 1545 1545 1546 1547 1547 1548
1491 1494 1496 1498 1501 1503 1504 1505 1508 1509 1509 1510 1512 1513 1513 1513 1514 1516 1517 1519 1521 1523 1524 1526 1528 1529 1530 1531 1532 1533 1534 1535 1536 1538 1539 1540 1542 1543 1544 1544 1545 1546
1486 1489 1491 1493 1496 1499 1499 1501 1504 1506 1505 1505 1507 1509 1510 1510 1510 1511 1513 1516 1518 1519 1520 1522 1525 1526 1527 1528 1529 1529 1530 1531 1533 1535 1536 1537 1539 1540 1541 1542 1543 1543
1482 1484 1487 1489 1492 1494 1494 1496 1500 1502 1503 1503 1503 1504 1507 1507 1506 1507 1509 1512 1514 1515 1517 1519 1521 1523 1524 1525 1526 1526 1527 1528 1530 1531 1533 1534 1536 1538 1539 1540 1541 1542
1478 1480 1483 1485 1487 1489 1490 1492 1495 1497 1499 1500 1499 1499 1502 1503 1502 1503 1505 1508 1510 1512 1514 1515 1517 1519 1520 1522 1524 1524 1524 1525 1527 1528 1530 1532 1534 1535 1537 1537 1538 1539
1474 1476 1478 1480 1482 1484 1486 1488 1489 1492 1495 1495 1494 1495 1498 1499 1499 1500 1501 1503 1505 1508 1510 1511 1512 1514 1517 1519 1521 1522 1522 1523 1524 1525 1527 1529 1531 1533 1534 1535 1536 1537
1470 1472 1474 1475 1478 1480 1482 1484 1486 1487 1489 1491 1491 1493 1495 1496 1497 1497 1498 1500 1502 1504 1506 1507 1508 1510 1513 1515 1517 1519 1520 1520 1521 1522 1524 1526 1528 1529 1531 1533 1534 1535
1466 1468 1470 1472 1474 1477 1479 1481 1483 1484 1485 1487 1489 1490 1492 1492 1493 1494 1495 1497 1499 1501 1502 1503 1505 1507 1510 1512 1514 1516 1517 1518 1519 1520 1521 1523 1525 1526 1528 1530 1531 1532
1462 1465 1466 1469 1471 1473 1476 1478 1480 1481 1483 1485 1486 1488 1489 1489 1490 1491 1492 1494 1496 1497 1499 1500 1502 1504 1507 1509 1511 1513 1514 1516 1518 1519 1519 1520 1522 1524 1526 1527 1528 1529
1460 1462 1464 1466 1468 1470 1472 1475 1477 1478 1480 1482 1484 1485 1486 1486 1487 1489 1490 1492 1493 1494 1496 1498 1499 1502 1504 1507 1508 1510 1512 1513 1515 1517 1517 1518 1519 1521 1523 1524 1524 1526
1457 1459 1461 1463 1465 1467 1469 1471 1473 1475 1477 1479 1481 1482 1482 1483 1485 1486 1487 1488 1489 1491 1493 1494 1496 1498 1501 1503 1505 1507 1509 1510 1512 1514 1514 1515 1516 1517 1519 1520 1520 1522
1454 1457 1459 1461 1463 1464 1466 1468 1470 1472 1475 1477 1479 1479 1479 1480 1482 1483 1484 1485 1486 1488 1490 1492 1494 1496 1498 1500 1502 1505 1507 1508 1509 1511 1511 1512 1512 1513 1515 1516 1517 1518
1451 1454 1456 1458 1460 1462 1464 1466 1467 1469 1472 1474 1476 1477 1476 1477 1478 1479 1480 1481 1482 1484 1487 1489 1492 1494 1495 1497 1499 1502 1503 1504 1506 1507 1508 1508 1509 1510 1511 1512 1514 1515
1449 1451 1454 1456 1458 1460 1462 1464 1465 1467 1469 1470 1472 1474 1474 1474 1475 1475 1476 1477 1478 1481 1484 1487 1490 1492 1493 1495 1496 1498 1500 1501 1502 1503 1504 1505 1505 1506 1507 1509 1511 1512
1447 1450 1452 1454 1457 1459 1462 1463 1464 1465 1467 1468 1470 1471 1472 1473 1473 1474 1473 1474 1476 1479 1481 1484 1487 1489 1491 1491 1493 1495 1497 1498 1498 1499 1500 1501 1502 1503 1504 1506 1508 1509
1446 1448 1450 1452 1455 1457 1460 1462 1463 1464 1465 1466 1468 1469 1470 1470 1471 1471 1471 1471 1473 1476 1478 1481 1484 1486 1487 1488 1489 1491 1493 1494 1495 1496 1497 1498 1499 1501 1502 1504 1505 1506
Wind_Speed
29 29 27 26 25 23 21 20 20 19 17 16 14 12 11 12 12 13 13 14 13 11 11 11 10 12 12 11 12 11 9 8 7 6 6 6 5 5 5 5 5 5
30 30 28 27 26 24 23 22 21 20 18 16 15 14 13 13 13 14 15 14 12 11 11 11 10 12 12 11 11 11 10 9 8 7 7 7 6 6 6 6 6 7
32 32 31 29 27 25 24 23 22 21 18 17 16 15 15 15 14 14 14 14 12 11 11 11 11 11 12 12 10 9 9 8 7 7 8 8 8 8 7 7 7 7
33 33 33 31 28 27 25 24 24 22 19 18 18 17 17 16 15 14 15 15 13 13 13 12 11 11 10 11 10 9 9 9 8 8 9 8 9 9 9 8 8 8
34 34 34 32 30 28 27 27 26 23 21 19 19 18 17 17 16 16 16 16 13 13 14 13 12 13 11 10 9 8 9 9 8 9 9 9 10 9 9 9 9 9
35 35 34 33 31 29 28 27 27 25 22 20 21 20 18 17 19 18 18 17 14 14 15 14 14 14 12 10 10 9 9 10 9 9 10 10 10 10 9 10 10 9
37 37 35 34 32 30 29 28 27 26 24 22 22 23 22 22 21 20 20 19 16 15 16 15 14 12 11 12 12 10 10 10 11 12 13 12 11 11 11 10 10 11
37 37 36 34 32 31 31 30 28 27 26 25 26 26 25 25 25 23 22 21 19 18 18 17 15 12 11 13 13 11 10 10 12 13 13 13 12 12 11 11 11 12
39 38 37 35 33 32 32 29 27 28 28 28 29 28 27 28 29 27 26 24 22 21 20 18 17 15 14 14 13 12 12 12 13 13 13 13 13 12 11 11 12 12
40 39 38 36 35 33 32 30 28 30 32 31 30 30 30 32 32 30 29 27 25 25 24 21 19 18 17 16 14 14 13 13 14 15 14 14 14 13 12 12 13 13
41 40 40 38 35 33 34 35 33 34 36 35 33 33 34 36 35 33 32 30 27 27 27 23 21 19 18 17 15 14 13 14 16 16 15 15 15 15 14 14 14 14
42 41 41 40 37 35 36 39 37 36 38 38 38 37 37 38 37 35 35 33 30 29 28 26 23 21 18 17 16 14 14 16 18 18 16 16 16 15 15 14 14 15
42 41 42 43 40 38 39 41 39 37 38 39 40 40 40 40 39 38 38 36 32 31 30 28 25 21 19 18 18 17 17 17 19 19 17 17 16 16 15 14 14 15
40 40 42 43 42 41 41 41 40 40 38 37 39 42 42 42 44 43 42 38 34 32 31 30 28 24 20 19 20 19 17 18 20 20 19 17 16 16 15 14 15 15
38 38 40 42 42 42 42 41 42 41 40 39 41 43 42 43 45 46 44 40 36 34 33 32 31 27 21 20 21 20 17 18 21 21 19 18 16 16 16 15 15 15
37 37 38 40 41 41 41 42 43 42 41 41 44 45 42 42 43 44 43 42 39 36 35 34 34 30 24 20 21 21 19 20 23 22 19 18 16 16 16 15 15 15
37 36 36 38 38 38 39 41 42 42 42 43 45 46 44 42 42 43 43 42 39 37 36 36 36 33 27 22 22 22 21 22 23 22 20 18 17 16 16 15 14 14
38 36 36 36 36 35 35 36 38 41 42 42 43 45 45 44 44 43 44 42 39 37 37 38 37 34 30 25 22 22 23 23 23 21 19 18 16 15 15 14 13 13
37 36 35 34 33 31 30 30 32 35 37 38 40 42 44 45 44 44 43 41 39 38 38 38 36 33 30 27 23 22 23 25 24 21 19 17 15 14 13 13 14 16
35 33 32 31 30 28 26 26 27 28 30 32 35 38 42 43 43 42 41 39 39 39 38 38 36 34 31 28 25 22 23 25 26 24 22 18 16 15 14 13 16 18
31 29 28 26 24 23 22 22 22 23 25 28 32 36 39 40 40 41 40 40 40 40 39 38 37 33 31 29 26 22 21 24 26 27 24 20 18 17 16 16 18 20
25 25 24 22 19 18 19 18 18 20 22 25 29 34 36 36 36 38 39 40 41 40 40 39 36 29 27 27 25 22 21 24 27 28 26 23 20 19 18 18 19 20
22 21 21 19 17 16 17 16 15 16 17 19 23 28 32 32 32 35 37 39 41 41 40 39 34 27 24 25 24 21 20 23 27 28 27 25 22 20 20 20 21 22
20 18 18 18 17 16 15 14 12 13 14 15 16 19 24 27 28 31 34 37 39 39 39 38 34 29 26 25 24 21 20 22 26 27 27 25 23 21 22 22 22 21
18 17 17 17 17 16 15 14 13 12 12 13 13 15 16 18 20 22 28 34 35 34 34 33 29 26 25 25 24 22 20 21 25 25 25 24 24 22 22 21 20 20
19 19 19 18 17 16 16 15 13 12 12 13 15 15 15 16 16 17 24 33 34 32 32 31 29 26 25 26 29 28 24 22 24 24 23 22 22 20 19 19 19 20
Wind_Direction
219 220 218 216 216 216 216 219 223 224 217 211 214 209 206 208 207 208 210 212 214 212 214 220 219 212 209 211 209 202 203 203 202 223 229 222 229 229 236 246 241 248
221 221 219 216 216 217 218 220 221 224 220 215 214 209 209 213 211 210 209 213 221 218 217 225 226 220 207 206 215 209 207 209 199 213 235 229 232 236 241 254 257 263
223 223 222 218 217 219 220 221 223 225 224 220 219 215 211 212 211 212 209 212 220 216 219 228 225 220 206 199 211 211 208 217 207 210 234 238 237 239 240 249 256 262
224 226 225 222 220 220 221 223 224 224 223 220 223 220 213 213 214 212 212 218 223 214 216 224 215 212 213 201 205 211 210 218 218 214 227 239 243 244 243 246 249 253
225 227 228 225 223 222 223 225 225 224 220 218 227 225 214 220 227 223 223 228 225 212 213 222 209 202 212 211 208 214 212 215 225 227 228 233 243 248 251 253 254 255
226 228 229 228 227 225 225 227 227 225 220 218 227 227 220 233 241 233 231 231 223 212 212 218 209 200 210 224 226 227 216 207 216 229 233 234 239 244 247 251 254 253
226 229 230 230 229 228 228 229 229 229 227 223 227 230 232 242 246 238 234 231 222 214 213 213 209 206 220 232 232 234 225 210 210 221 228 233 237 242 244 245 247 248
226 229 231 231 230 230 231 232 232 234 233 230 233 238 241 245 247 243 237 232 225 219 217 216 214 216 224 226 228 237 234 222 221 230 236 237 238 242 244 242 241 246
226 228 231 232 229 229 232 231 229 234 237 237 239 242 242 244 247 245 240 235 228 222 218 217 218 220 220 222 231 243 238 226 223 231 243 245 241 242 242 239 240 245
225 227 229 230 228 229 231 228 224 232 240 240 241 243 243 244 244 243 241 237 228 221 217 217 219 219 219 224 234 239 235 231 228 232 245 250 243 238 236 234 237 245
225 226 228 228 225 225 230 231 228 233 239 240 239 240 242 243 241 239 239 238 231 224 221 221 219 220 224 228 230 232 236 239 238 240 247 250 244 237 234 233 236 243
226 226 228 228 224 223 230 233 229 229 236 240 239 238 240 241 240 239 239 239 235 228 225 224 220 220 225 225 224 233 240 239 238 240 245 247 244 239 237 238 241 246
228 228 230 230 229 228 232 235 233 229 233 238 240 240 240 239 240 241 242 241 236 231 229 224 219 219 221 220 225 236 242 239 236 238 242 245 243 239 238 240 245 251
230 231 232 232 232 233 235 237 238 235 233 234 238 241 240 240 241 242 243 241 235 233 231 225 220 220 221 224 230 235 238 239 236 236 239 242 242 241 239 240 244 249
231 230 229 229 231 235 238 238 238 238 235 231 234 239 239 239 241 242 241 238 234 234 233 225 221 222 225 229 233 236 240 240 236 235 237 236 236 238 240 242 247 250
229 226 225 228 232 235 237 237 239 240 237 232 234 237 236 235 237 238 237 236 235 236 234 227 224 226 227 231 236 240 243 239 233 232 232 230 232 236 240 245 249 252
225 224 225 230 235 236 236 237 238 237 235 232 234 235 234 234 234 234 235 236 237 237 235 231 229 228 226 231 238 240 240 235 231 229 227 227 231 236 242 248 249 251
223 224 229 235 239 241 242 241 239 237 236 234 233 233 233 234 234 234 236 238 238 238 236 233 232 229 226 233 240 239 234 228 223 222 222 223 229 237 244 248 248 247
224 227 233 239 243 246 246 245 243 242 241 239 237 236 235 236 237 238 240 240 239 239 236 232 230 227 227 234 240 238 231 225 221 220 219 220 225 233 239 245 246 244
226 230 235 240 243 245 246 244 244 244 243 243 241 240 239 239 240 242 243 243 240 238 234 230 228 228 231 237 241 239 233 227 225 226 225 223 225 230 234 242 249 249
227 229 233 237 238 240 241 240 240 242 243 243 242 241 243 245 246 246 246 244 240 237 234 231 229 231 236 241 242 238 234 230 227 228 230 229 229 234 239 243 250 258
225 225 228 228 222 226 235 232 228 232 237 240 241 242 246 250 251 249 248 245 241 237 234 232 230 231 237 243 244 239 234 230 228 229 232 231 231 238 244 247 255 266
218 218 220 216 207 216 230 226 217 220 225 229 235 240 246 252 254 253 251 248 243 239 235 231 229 230 236 243 245 244 239 232 229 230 232 232 232 237 243 250 258 267
208 209 210 208 207 212 217 213 209 210 212 214 219 229 240 248 253 252 250 248 244 240 237 233 231 233 236 240 244 246 244 235 230 231 233 233 234 237 242 251 259 266
200 201 202 204 207 204 199 203 208 206 205 209 213 217 226 235 238 237 241 244 243 238 234 231 230 233 236 239 242 248 248 238 231 232 234 233 235 240 246 252 259 267
193 197 197 201 204 198 192 200 207 205 205 209 215 220 222 222 221 224 237 245 246 241 233 227 225 230 239 247 251 254 253 241 233 233 234 235 238 243 249 253 259 267